SL-12 R/B(AUX MOTOR), 22066

Orbit data source: Space-Track

SL-12 R/B(AUX MOTOR), 22066 is space debris in HEO originally from a launch on Thu, 30 Jul 1992 UTC launched from the Tyuratam Missile And Space Complex (TTMTR). Debris objects in space refer to the collection of defunct objects orbiting the Earth. Examples of debris include non-operational satellites, rocket bodies, and fragments generated from explosions, collisions, or faulty payload assembly.

Loading next visibility...
Identifier
22066, 1992-047G
Orbit
HEO
Country
Flag of CISCIS
Related business
Manufacturer
NPO Energiya
Mission
Spacecraft
Bus & Motor
SOZ, Unknown motor
Mass
Wet unknown, ~60 kg dry
Launch date (UTC)
1992-07-30 (33 years ago)
Launch vehicle
Unknown
Launch site
Tyuratam Missile And Space Complex (TTMTR)
Object type
Payload
Rocket body
Debris
Shape & HBR
Cyl, 0.6 m
Radar Cross Section
0.660 m², Medium (>0.1 m² and < 1m²)

Expand to show TLE details & history
Last TLE update: 21 hours ago

TLE from 21 hours ago
0 SL-12 R/B(AUX MOTOR)
1 22066U 92047G   25348.81237230  .00001536  00000-0  11081-2 0  9994
2 22066  64.6544 192.2587 5714466 163.4706 228.1362  4.37720552517799
Epoch: 2025-12-14T19:29Z
TLE epoch observation values (Epoch: 2025-12-14T19:29:48.966Z)
Latitude
-0°
Longitude
176.09077°
Altitude
17,130.552 km
Speed
2.943 km/s
True Right ascension
12h 49m 03s
True Declination
0° 00' 00"
Sunlit
Object was in daylight at epoch
Visualization orbit readout
Latitude
Unknown
Longitude
Unknown
Altitude
Unknown
Speed
Unknown
Apparent Right ascension
Unknown
Apparent Declination
Unknown
Sunlit
N/A
Visualization observer readout
Local Sidereal Time
15:08:15
Azimuth
Unknown
Elevation
Unknown
Doppler factor
Unknown
Orbital elements
Apogee altitude
18,426.86 km
Perigee altitude
386.5 km
Semi-major axis
15,784.817 km
Eccentricity
0.57145
Inclination
64.6544°
RAAN
192.2587°
Arg. of periapsis
163.4706°
True anomaly
196.58207°
Mean anomaly
228.1362°
Eccentric anomaly
211.18336°
Mean motion
1.09442 °/min
Orbital period
328.94 mins
BSTAR
0.0011081
Loading maneuver chart data...
Computing Atmospheric mass density...
Loading historical data...
Loading historical data...
Loading historical data...
Loading historical data...
Loading historical data...
Loading historical data...
Loading historical data...

Documentation

Showing up to 5 results
|